Vorticity
6 5 7 9 8 4 -1 1 4 5 5 5 5 4 5 5 6 6 6 5 4 4 4 4 3 3 3 3 4 2 2 3 3 4 3 3 3 3 3 5 6 5 5 7 4 9 21 17 9 4 3 6 2 -2 -1 1 4 4 2 -0 -1 -2 -0 3 4 8 15 17 10 7 8 9 8 6 6 9 10 11 12 12 11 11 10 10 11 13 13 12
7 5 6 7 9 7 2 -1 2 5 5 5 5 4 5 5 5 6 6 5 4 4 4 4 3 3 2 2 4 3 2 3 2 4 3 3 4 3 4 6 6 5 5 7 4 9 19 14 8 5 1 1 1 -1 -3 -1 2 1 0 -0 -1 -2 -1 1 4 4 8 18 16 8 8 11 10 8 7 7 7 8 10 11 10 11 10 9 10 11 13 14
8 7 6 6 8 8 6 1 -0 3 5 5 5 4 5 5 5 6 6 5 4 4 4 3 3 3 3 2 3 3 2 2 2 5 3 3 4 3 5 7 6 5 4 6 4 8 16 13 6 3 1 0 -1 0 -2 -1 1 -1 -1 0 -0 -1 -1 -0 3 4 4 13 16 11 7 8 9 7 8 8 7 7 9 12 10 11 11 11 13 10 10 13
8 8 7 6 7 8 7 4 -0 1 4 5 5 4 4 5 5 5 6 5 4 3 4 4 3 3 4 2 3 3 2 2 4 5 3 3 3 3 6 6 7 5 3 7 6 5 8 16 16 3 -1 1 -1 -1 -1 -0 1 -1 -2 -1 0 -0 1 -0 1 4 3 10 16 11 5 4 7 7 7 7 8 8 8 12 11 11 11 10 11 10 9 7
7 8 8 6 7 8 8 6 2 -0 2 4 5 4 5 5 5 5 5 6 4 3 4 4 4 3 4 3 3 4 1 2 6 5 2 4 4 5 6 6 8 3 2 7 7 3 2 15 24 8 -1 2 1 1 -1 -1 -1 -0 -2 -3 0 -0 1 1 -1 2 4 12 17 12 7 7 10 11 8 7 8 9 8 12 11 10 11 9 9 9 10 6
7 8 9 8 6 7 9 8 5 1 0 3 5 4 5 5 5 5 5 5 5 3 4 5 4 4 4 3 4 4 1 3 7 4 3 5 4 5 6 7 8 3 3 7 7 4 1 9 18 11 5 3 -1 -2 -2 -2 -3 -1 -2 -5 0 1 1 2 -1 -0 5 15 19 11 9 12 14 14 11 10 9 7 6 9 11 10 9 10 10 10 10 7
7 7 8 9 7 7 8 9 7 3 -0 1 4 4 4 5 5 6 5 5 5 4 4 5 5 4 4 3 3 5 3 3 7 5 4 5 5 5 7 8 6 3 3 6 7 4 2 4 10 11 7 4 1 -1 -1 -0 -2 0 1 -4 -0 2 1 3 -1 -3 4 16 18 10 8 9 12 13 10 9 8 7 5 6 9 10 9 8 9 11 12 10
7 7 7 9 9 7 7 9 9 6 2 -0 2 5 4 5 5 6 6 6 5 4 4 5 6 5 4 4 3 6 5 2 6 9 6 4 6 5 6 9 7 5 2 5 9 4 2 1 7 14 7 2 3 2 0 -0 -2 0 5 0 0 3 2 5 1 -5 4 15 11 5 7 7 8 10 9 7 7 9 7 4 7 10 10 8 6 8 10 11
7 7 7 7 9 9 7 8 10 8 5 0 0 4 4 4 5 6 6 6 6 5 5 5 5 6 5 5 4 5 6 4 5 8 8 5 6 5 6 9 7 6 1 5 10 4 3 3 8 14 7 3 2 2 3 2 0 1 6 3 2 4 0 5 6 -6 1 14 9 1 5 8 7 9 11 10 8 12 12 8 6 8 10 9 9 8 7 10
7 7 7 7 8 9 8 8 10 10 8 3 -0 2 4 4 4 6 6 6 7 6 6 5 5 6 5 6 5 5 6 6 5 6 7 6 5 5 6 7 8 6 1 7 9 1 6 10 7 4 0 5 5 5 9 6 4 2 4 4 1 4 -1 2 7 -3 -3 11 12 2 2 7 7 8 12 14 11 12 16 15 9 7 9 9 10 10 9 10
8 8 8 7 6 8 9 8 9 10 10 7 2 -0 3 5 4 5 6 6 7 6 7 6 6 6 5 6 6 6 7 6 6 4 6 7 6 5 5 6 9 5 1 9 9 3 8 4 2 2 -4 2 6 6 9 5 1 -0 2 3 2 3 1 1 4 -1 -2 7 12 6 3 3 3 3 5 10 10 8 14 20 16 11 10 8 8 10 10 10
10 9 8 8 7 7 9 8 8 10 11 9 5 1 0 4 5 4 6 7 6 7 7 7 7 6 6 7 6 7 8 5 4 5 7 7 5 5 4 5 9 5 3 11 8 4 6 -1 2 5 -4 1 5 6 12 12 7 5 2 0 2 3 2 3 2 -1 -0 4 7 6 5 2 1 -2 -2 8 13 8 11 19 19 15 11 9 10 9 9 8
11 11 9 9 7 7 8 9 8 9 11 11 8 4 -0 2 5 4 5 7 7 6 7 7 7 7 6 7 6 5 6 4 1 4 10 8 4 5 4 5 8 4 4 11 9 4 4 1 2 1 -2 5 6 3 11 13 8 8 2 -2 3 4 3 5 2 -1 -2 2 5 3 3 4 3 -2 -4 6 15 12 11 14 13 10 9 9 11 10 10 9
8 10 10 10 9 7 7 8 9 8 10 11 10 8 2 1 4 5 4 5 7 6 7 8 7 7 7 6 8 6 5 5 2 2 10 10 5 5 4 5 8 4 4 11 9 4 4 1 -2 3 6 6 4 1 4 7 3 2 2 -0 4 5 4 6 4 2 -2 -1 4 1 -0 3 3 1 -0 2 6 8 10 12 8 4 7 9 9 11 14 13
8 8 9 10 10 9 7 7 8 9 9 10 11 10 6 1 2 5 5 4 6 7 6 8 8 7 7 6 8 8 5 6 4 2 9 12 6 4 5 5 6 4 4 10 7 3 7 4 1 7 6 2 3 0 -1 1 -5 -6 -0 -1 0 4 6 6 3 3 -1 -1 3 1 1 2 1 2 4 3 0 0 5 10 11 6 5 8 10 12 11 9
10 9 8 8 10 10 9 7 7 9 10 9 10 11 9 4 1 4 6 4 4 7 6 7 9 7 7 7 8 9 7 7 7 3 8 13 8 3 3 4 5 5 4 7 5 5 8 6 3 6 3 -1 -0 -3 -3 1 -4 -2 4 -1 -3 -0 3 6 5 2 1 0 0 2 6 4 1 3 5 5 2 -1 1 7 13 13 8 8 11 13 9 4
11 12 10 7 8 11 11 8 7 9 10 9 10 11 11 7 3 2 5 6 3 5 6 6 9 8 7 8 8 9 9 7 7 5 9 13 10 5 2 -0 3 6 6 6 6 8 8 3 3 7 3 -1 -1 -3 -1 2 0 1 1 -4 -3 -1 1 4 2 1 5 2 -2 2 8 3 -0 4 5 6 3 -1 0 4 12 17 14 10 9 10 10 5
10 12 13 10 7 8 11 10 8 7 9 10 10 10 12 10 6 1 3 7 4 4 6 6 8 9 8 8 8 9 9 7 5 6 11 14 12 7 0 0 6 8 5 4 7 9 6 1 3 8 4 2 2 -1 -2 0 2 2 1 1 1 -1 0 2 -3 2 9 2 -0 4 6 2 -2 1 4 7 5 -0 0 5 10 16 15 10 9 10 11 8
7 9 12 14 10 7 9 12 10 7 8 10 10 10 12 11 9 3 1 6 6 3 5 6 6 7 8 8 8 7 6 6 5 5 10 15 14 7 1 4 7 6 2 2 9 9 4 2 3 4 5 6 5 4 0 -3 0 1 1 8 9 1 1 4 -2 4 12 2 -1 3 2 3 1 -1 0 5 8 3 1 5 8 14 13 6 7 11 11 9
6 7 9 12 14 10 7 10 11 10 7 8 10 10 11 12 11 7 1 3 7 4 3 5 5 5 7 8 8 7 5 6 6 6 9 15 15 6 2 6 7 5 3 5 9 6 3 4 2 2 8 9 5 7 6 1 8 9 5 9 10 1 -1 -0 -5 3 15 6 -1 1 1 5 6 3 -0 3 10 5 1 6 7 12 14 9 6 7 12 10
9 7 8 10 13 13 9 9 11 12 8 7 10 10 11 11 11 10 4 1 5 6 3 4 6 5 5 7 6 6 6 6 7 7 10 15 14 5 3 7 8 6 4 5 7 4 5 5 0 2 11 12 6 10 15 17 20 15 9 11 6 0 -1 0 1 5 11 4 -3 -1 2 2 -1 3 4 4 6 1 2 9 8 9 12 12 12 8 9 9
13 10 9 8 11 13 11 9 9 12 11 7 8 10 11 10 10 12 8 1 2 6 6 4 5 5 4 5 5 6 5 6 6 5 9 17 13 5 6 8 6 5 4 4 7 7 6 0 1 6 8 9 9 14 21 19 12 5 8 14 6 -1 2 7 8 5 4 2 1 3 4 0 -5 3 9 4 -0 -5 1 11 9 9 7 3 11 12 7 6
16 13 11 9 10 12 13 11 9 11 13 9 7 10 12 10 11 12 9 4 1 5 8 5 4 5 4 5 5 7 6 6 7 4 7 13 11 6 8 7 2 6 7 3 6 8 3 -2 2 7 6 7 10 13 14 7 3 7 11 11 5 -3 -1 6 2 1 3 -0 5 9 2 -2 -0 6 11 5 1 -1 0 6 7 11 8 -3 3 11 8 6
14 13 12 11 10 11 13 13 10 9 12 11 7 9 11 11 13 12 10 8 2 3 8 7 5 3 3 4 5 7 7 6 6 6 6 8 11 10 8 7 5 6 6 3 6 4 1 2 2 3 4 6 13 17 11 2 6 17 12 4 6 1 -2 0 -2 4 4 -6 5 11 -5 -5 3 7 11 8 7 7 5 4 5 10 8 0 1 7 8 8
11 12 12 12 10 10 11 12 12 9 11 13 8 8 11 12 13 12 12 10 3 1 6 7 7 5 3 2 3 3 4 6 5 5 6 7 10 9 7 9 9 6 4 3 6 2 1 3 3 6 2 1 16 20 9 6 11 18 12 2 4 2 -3 1 5 10 4 -2 9 7 -6 1 8 7 9 7 6 10 7 2 4 8 4 2 2 3 5 7
8 11 11 11 10 10 10 12 13 11 11 14 10 8 10 12 13 13 13 13 6 1 4 7 7 9 7 3 4 3 1 4 6 4 5 6 8 9 11 11 8 5 4 4 8 5 3 2 3 7 2 2 18 19 12 13 10 10 10 6 8 3 -6 -0 6 6 5 9 13 8 5 11 11 7 4 1 7 12 7 0 3 7 4 5 6 2 1 4
8 9 10 9 10 10 10 11 13 12 13 15 12 8 10 12 12 12 13 14 9 3 3 4 6 9 10 7 7 7 4 5 8 6 5 6 7 10 15 12 6 5 4 7 11 6 2 5 7 8 7 14 22 17 13 12 6 4 5 7 10 3 -4 5 10 8 12 16 11 8 12 11 8 7 0 0 10 12 4 0 2 4 4 7 8 4 0 2
12 8 9 8 9 10 9 10 12 13 14 16 13 9 11 12 11 11 11 12 11 6 3 3 5 7 8 10 9 8 7 6 7 7 5 6 7 10 14 10 7 9 8 9 11 7 3 6 9 10 12 18 19 12 7 9 11 4 0 5 4 -1 5 16 12 8 14 17 11 7 6 3 5 4 -2 2 12 10 2 -1 2 3 3 6 8 4 0 2
17 9 9 8 8 9 9 10 11 13 15 16 12 10 11 11 10 10 10 11 13 10 4 2 5 6 6 10 11 10 10 7 7 8 7 7 9 12 12 9 9 12 10 9 9 9 8 5 6 7 6 5 3 2 1 9 15 4 -2 4 4 8 18 17 8 7 10 9 6 4 1 1 4 3 -0 4 10 7 -1 -0 3 2 3 6 6 4 1 3
17 10 10 8 8 8 8 10 11 13 17 16 11 10 10 10 9 10 9 12 14 11 6 3 2 5 7 7 10 10 9 9 8 7 10 10 8 10 9 9 15 13 10 12 12 10 8 4 2 0 -1 -1 3 9 11 14 17 11 7 8 12 22 17 3 3 8 7 6 4 3 5 6 4 3 0 1 7 6 -0 1 3 2 5 7 5 5 5 5
16 10 10 9 9 9 8 10 13 15 17 15 11 9 9 10 9 10 12 13 13 13 11 6 3 5 8 7 8 10 9 10 11 9 11 11 9 10 11 14 20 16 10 11 10 7 4 1 0 0 4 9 11 12 12 14 17 19 14 6 9 17 8 -1 5 7 4 8 12 10 9 8 7 8 3 -1 4 6 2 1 2 4 7 5 5 7 5 5
14 8 9 11 12 10 9 11 16 18 17 12 10 10 8 11 11 11 17 15 12 16 15 10 8 7 9 9 7 8 8 8 10 9 9 11 12 11 15 19 17 11 6 3 1 1 -0 -1 2 8 10 11 12 9 5 9 16 17 12 4 2 7 8 5 4 5 4 5 11 12 8 7 9 11 6 1 5 6 2 3 5 7 6 3 5 9 7 8
13 9 7 12 15 15 14 17 19 18 15 10 10 12 10 13 15 14 18 16 10 15 16 12 11 8 10 13 8 6 7 6 8 8 7 9 10 6 11 16 11 7 6 2 1 0 -0 2 6 10 8 6 9 5 -1 8 15 10 6 4 -1 -3 3 5 0 3 4 -2 -1 -0 -0 7 10 8 5 3 7 7 3 4 6 5 2 1 6 9 10 10
9 6 6 13 19 21 20 19 18 14 12 10 10 15 15 16 18 16 17 16 11 13 14 11 9 8 8 9 8 7 9 10 9 9 8 10 12 8 11 14 10 9 9 7 7 1 -1 7 9 9 9 7 4 -2 -1 13 17 11 12 15 11 1 -3 -3 -4 -2 -2 -3 -1 -4 -2 5 5 1 2 5 9 7 3 2 2 2 2 5 10 10 8 7
13 8 11 20 24 23 19 15 14 10 10 13 15 17 17 15 14 12 11 12 11 11 12 10 9 10 8 7 9 9 10 11 11 11 11 12 15 12 11 13 13 15 14 11 10 2 1 11 11 6 7 4 -2 -4 4 12 7 2 9 17 22 21 11 0 -1 1 3 6 9 8 7 5 2 2 5 8 8 2 -0 1 5 9 10 10 10 5 4 5
25 21 22 26 23 18 13 11 12 13 16 19 18 15 12 9 9 9 8 7 7 9 12 12 9 9 10 10 11 10 10 10 10 12 12 12 12 9 9 12 12 12 12 9 7 3 3 6 1 -1 6 6 2 1 2 5 5 1 3 7 11 19 22 16 9 5 4 4 3 6 9 6 7 11 8 8 7 4 7 12 13 14 10 6 5 4 3 4
27 28 27 23 16 12 13 16 19 21 21 17 11 9 8 8 9 11 11 10 9 11 14 15 13 11 11 12 12 12 12 10 8 11 13 11 9 7 10 10 7 4 3 2 3 3 3 2 -4 -2 6 6 4 3 -1 1 6 4 2 5 7 10 15 17 14 8 7 7 3 6 11 9 10 12 9 9 10 9 9 8 7 7 4 1 4 5 5 5
22 20 17 15 16 20 23 23 20 16 14 9 7 8 8 9 10 11 14 16 15 17 17 15 15 15 12 12 14 14 13 11 11 13 14 11 7 6 7 6 3 1 -1 0 4 3 4 8 5 4 7 5 4 5 4 4 3 -1 -3 -0 5 9 10 11 14 11 8 6 3 4 4 4 8 8 5 7 9 10 9 6 7 8 5 3 4 6 7 8
15 15 20 27 30 29 22 16 11 9 8 5 4 6 9 12 13 14 17 17 15 17 16 11 11 15 12 12 13 12 13 14 15 16 13 9 7 6 6 5 5 5 4 7 10 6 7 12 9 5 6 9 10 7 6 7 4 1 -0 -3 -1 5 7 9 12 11 9 8 7 5 1 2 5 -1 -5 -0 5 13 16 13 10 7 3 3 4 6 8 9
24 30 35 32 23 16 11 8 7 7 5 5 6 11 16 18 17 16 16 16 13 13 14 11 11 13 12 12 10 7 11 14 12 12 9 5 5 6 6 6 7 8 7 7 7 5 8 10 7 5 2 4 9 7 4 6 4 0 -1 -2 1 2 1 5 9 9 11 12 10 9 7 4 0 -6 -4 1 4 10 13 8 5 5 6 9 9 9 10 8
34 29 21 11 7 7 7 7 7 6 6 10 14 17 16 15 15 14 12 11 10 11 12 12 10 11 13 15 12 9 12 13 9 8 7 3 3 6 7 7 6 7 8 8 8 9 9 5 1 2 1 1 5 7 7 9 6 1 -0 2 3 1 0 4 6 4 6 8 8 8 7 3 1 3 6 5 5 7 4 2 6 9 11 13 11 11 10 7
15 9 5 3 5 5 5 7 6 5 6 8 10 9 6 7 8 7 6 5 4 6 6 4 4 8 11 10 10 12 12 11 9 6 5 4 1 2 5 6 6 4 4 6 6 7 8 5 1 1 3 4 5 5 7 11 11 8 7 5 1 2 4 7 7 5 3 2 3 5 7 7 9 9 6 4 7 7 3 3 7 9 10 10 9 7 4 3
3 6 6 5 3 3 6 8 4 2 3 5 8 6 2 2 3 4 5 4 3 4 3 2 3 5 5 6 12 15 9 9 10 2 -2 2 3 2 3 3 2 1 1 5 6 7 9 8 7 9 11 12 14 12 9 10 11 11 10 6 3 4 5 7 8 6 4 3 3 5 8 9 7 6 8 10 11 9 7 8 9 8 7 5 3 2 0 2
10 7 5 6 6 7 6 4 3 3 5 8 9 6 2 1 2 4 5 4 7 7 4 5 5 3 3 6 13 16 8 8 13 5 -2 1 2 1 3 1 1 3 4 6 6 8 9 5 3 6 6 4 5 8 10 9 7 7 7 6 6 5 9 17 21 18 17 16 13 10 9 7 6 9 12 11 7 6 5 5 8 10 6 2 2 2 2 4
7 3 6 8 8 9 4 1 4 5 6 8 7 5 3 2 2 2 1 2 8 10 5 5 7 5 5 4 3 5 3 4 8 6 4 6 3 2 4 3 3 4 1 -1 -1 1 5 4 3 5 3 -2 -2 5 14 17 14 9 7 8 8 7 8 13 15 14 15 15 12 11 10 8 8 10 10 6 2 1 2 5 9 10 4 -0 0 1 2 3
2 3 8 8 9 9 2 1 4 3 5 6 5 5 2 -0 3 3 1 1 5 10 7 3 4 5 6 5 1 -0 1 2 3 1 1 4 5 4 5 5 5 5 2 1 1 0 1 2 1 1 1 1 5 12 19 23 22 18 15 13 11 8 6 4 5 6 7 8 7 8 7 7 9 9 8 6 3 2 6 9 8 4 1 -0 -1 -1 0 1
1 2 5 8 10 8 2 2 3 2 5 4 4 5 -0 -2 5 3 0 1 3 7 10 6 3 4 4 5 3 2 2 2 3 3 1 1 1 1 1 3 5 3 2 2 2 1 1 -2 -5 -5 -1 6 13 17 17 17 17 17 17 16 14 12 9 6 6 6 7 9 9 7 8 9 7 5 5 6 7 9 11 9 4 0 0 1 0 -0 -0 0
0 1 3 6 8 7 3 1 -0 1 4 2 3 4 -3 -3 4 0 -2 3 3 0 6 8 5 5 5 4 4 5 4 3 2 3 4 2 1 1 0 2 4 3 3 4 1 2 4 3 2 -0 0 8 15 15 14 13 11 10 10 10 9 9 8 6 5 5 6 7 7 5 7 8 7 7 8 8 9 10 8 5 4 5 6 5 3 1 2 6
1 0 3 4 5 5 3 0 -1 2 3 0 3 5 -1 -2 3 -0 -4 2 5 -0 -1 5 7 5 4 3 4 5 5 3 3 3 4 4 4 4 2 2 4 2 3 4 0 1 4 5 6 2 1 12 19 15 10 11 12 12 13 12 10 8 9 11 13 12 11 10 9 8 9 9 10 11 11 9 8 7 5 5 6 6 6 7 6 4 7 12
2 0 3 5 4 4 4 2 -0 1 1 -2 1 5 4 0 1 2 -3 -4 3 4 -2 -1 5 7 7 4 2 4 3 2 3 1 3 5 5 5 4 3 4 2 2 3 2 3 3 2 2 -0 2 15 21 13 7 7 8 9 11 14 15 15 14 14 14 16 16 16 16 15 14 12 12 12 10 9 8 7 6 6 2 -1 2 7 8 7 11 13
1 -0 3 4 4 4 3 2 2 4 5 2 0 2 4 3 -0 3 3 -4 -2 4 1 -2 -1 1 6 6 3 3 2 2 4 3 4 4 2 2 3 1 2 2 3 5 6 5 3 0 1 1 3 11 14 9 7 8 8 6 5 6 8 9 9 9 9 11 12 12 12 12 12 12 11 11 9 9 8 7 6 4 2 2 8 11 11 13 16 14
-1 1 2 -1 3 4 -0 -1 1 1 3 6 7 3 3 5 1 1 5 2 -1 2 3 3 1 -4 -1 3 3 3 0 -2 -0 0 2 4 3 3 4 2 2 2 1 2 2 2 1 -0 1 1 4 9 11 11 12 13 12 11 11 11 11 9 9 9 9 9 9 10 11 11 10 11 10 10 10 9 7 6 5 6 9 11 10 9 12 13 11 8
Height
5896 5897 5898 5900 5902 5903 5905 5907 5908 5909 5911 5912 5913 5914 5915 5916 5917 5918 5919 5920 5921 5923 5924 5925 5926 5927 5928 5929 5929 5930 5930 5931 5931 5932 5932 5932 5933 5933 5933 5934 5934 5934 5934 5934 5934 5934 5935 5935 5936 5936 5935 5935 5934 5933 5933 5931 5931 5930 5929 5928 5927 5926 5925 5925 5925 5924 5923 5922 5921 5920 5920 5919 5918 5918 5917 5916 5916 5915 5914 5913 5913 5912 5912 5912 5911 5911 5912 5912
5895 5896 5897 5898 5900 5902 5904 5905 5907 5909 5910 5911 5912 5913 5914 5916 5917 5918 5919 5920 5921 5923 5924 5925 5926 5927 5928 5929 5929 5930 5931 5931 5932 5932 5933 5933 5934 5934 5934 5935 5934 5934 5935 5935 5935 5935 5936 5936 5937 5936 5936 5935 5934 5934 5934 5933 5932 5931 5931 5930 5929 5928 5927 5928 5928 5926 5925 5924 5923 5922 5921 5921 5920 5919 5918 5918 5917 5915 5914 5914 5913 5913 5913 5912 5912 5912 5912 5912
5893 5895 5896 5897 5899 5900 5902 5904 5906 5908 5909 5910 5911 5913 5914 5915 5916 5917 5918 5920 5921 5922 5923 5925 5926 5927 5928 5929 5929 5930 5931 5932 5932 5932 5933 5934 5934 5935 5935 5935 5935 5935 5935 5935 5936 5936 5937 5938 5938 5937 5937 5936 5935 5935 5935 5934 5933 5933 5932 5932 5931 5930 5929 5930 5930 5929 5927 5926 5924 5923 5923 5922 5921 5920 5919 5918 5917 5916 5915 5914 5914 5913 5913 5913 5912 5912 5912 5912
5891 5893 5894 5896 5897 5899 5901 5903 5905 5906 5908 5909 5911 5912 5913 5915 5916 5917 5918 5919 5921 5922 5923 5925 5926 5927 5928 5929 5930 5930 5931 5932 5932 5933 5934 5934 5935 5935 5935 5936 5936 5936 5936 5936 5936 5936 5938 5939 5939 5938 5938 5937 5936 5936 5936 5935 5935 5934 5933 5933 5933 5932 5931 5932 5932 5931 5929 5928 5926 5925 5924 5923 5922 5921 5920 5919 5918 5917 5916 5915 5914 5913 5913 5913 5912 5912 5912 5912
5889 5891 5893 5894 5896 5897 5899 5901 5903 5905 5907 5908 5910 5911 5913 5914 5915 5916 5917 5919 5920 5922 5923 5924 5926 5927 5928 5929 5930 5930 5931 5932 5932 5933 5934 5934 5935 5935 5936 5936 5936 5936 5936 5937 5936 5937 5938 5939 5939 5939 5939 5939 5938 5937 5937 5936 5936 5935 5934 5934 5934 5933 5933 5934 5934 5933 5931 5930 5928 5926 5926 5925 5923 5922 5921 5920 5919 5918 5917 5916 5915 5914 5914 5913 5912 5912 5912 5911
5887 5889 5891 5893 5894 5896 5898 5899 5902 5904 5905 5907 5909 5910 5912 5913 5914 5916 5917 5918 5919 5921 5922 5924 5925 5926 5928 5929 5929 5930 5931 5932 5932 5933 5934 5934 5935 5936 5936 5936 5936 5936 5936 5936 5936 5937 5938 5940 5940 5940 5940 5940 5939 5938 5938 5937 5937 5937 5936 5935 5935 5935 5935 5935 5935 5935 5933 5931 5929 5928 5927 5926 5925 5923 5922 5921 5920 5919 5918 5917 5916 5915 5914 5913 5912 5912 5912 5911
5886 5887 5889 5891 5893 5894 5896 5898 5900 5902 5904 5906 5908 5909 5911 5912 5914 5915 5916 5917 5919 5920 5922 5923 5925 5926 5927 5928 5929 5930 5931 5932 5932 5933 5934 5935 5935 5936 5936 5937 5936 5936 5936 5937 5937 5937 5938 5939 5940 5941 5941 5940 5940 5940 5939 5939 5938 5938 5937 5936 5936 5936 5936 5937 5937 5936 5934 5933 5931 5930 5929 5927 5926 5925 5923 5922 5921 5920 5919 5918 5917 5916 5915 5914 5913 5912 5912 5911
5884 5885 5887 5889 5891 5893 5894 5896 5898 5900 5902 5904 5906 5908 5910 5911 5913 5914 5916 5917 5918 5920 5921 5922 5924 5925 5927 5928 5929 5930 5931 5932 5932 5933 5934 5935 5936 5936 5937 5937 5937 5937 5937 5937 5937 5937 5938 5938 5940 5941 5941 5941 5941 5941 5941 5940 5940 5939 5939 5937 5937 5937 5937 5938 5938 5937 5935 5934 5933 5932 5930 5929 5928 5926 5925 5924 5922 5921 5920 5919 5918 5917 5916 5915 5914 5913 5912 5911
5882 5884 5885 5887 5889 5891 5893 5895 5897 5899 5901 5903 5905 5907 5909 5910 5912 5913 5915 5916 5917 5919 5920 5922 5923 5925 5926 5927 5929 5930 5930 5931 5932 5933 5934 5935 5936 5936 5937 5937 5937 5937 5937 5938 5938 5938 5938 5939 5940 5941 5942 5942 5942 5942 5942 5941 5940 5940 5940 5939 5939 5939 5939 5939 5939 5938 5936 5935 5934 5933 5932 5931 5929 5928 5927 5925 5924 5922 5921 5921 5920 5918 5917 5916 5915 5915 5914 5913
5880 5882 5883 5885 5887 5889 5891 5893 5895 5897 5899 5901 5903 5905 5907 5909 5911 5912 5914 5915 5917 5918 5919 5921 5923 5924 5926 5927 5928 5929 5930 5931 5932 5933 5934 5935 5936 5937 5937 5937 5938 5938 5938 5938 5939 5939 5939 5939 5940 5941 5942 5942 5942 5942 5942 5942 5941 5941 5941 5940 5940 5940 5940 5939 5940 5939 5938 5936 5935 5934 5933 5932 5930 5929 5928 5927 5925 5924 5923 5922 5921 5919 5918 5917 5916 5916 5915 5914
5878 5880 5881 5883 5885 5887 5889 5891 5893 5895 5897 5899 5902 5904 5906 5908 5910 5911 5913 5914 5916 5917 5919 5920 5922 5924 5925 5926 5927 5928 5930 5931 5932 5933 5933 5935 5936 5937 5938 5938 5938 5938 5938 5939 5939 5940 5940 5941 5941 5941 5941 5941 5941 5942 5943 5943 5942 5942 5942 5942 5942 5941 5941 5940 5940 5940 5939 5938 5936 5935 5934 5933 5931 5930 5929 5928 5926 5925 5924 5923 5921 5920 5919 5918 5917 5916 5915 5914
5876 5877 5879 5881 5883 5885 5887 5890 5892 5893 5895 5897 5900 5902 5904 5907 5908 5910 5912 5913 5915 5916 5918 5919 5921 5923 5924 5925 5927 5928 5929 5930 5931 5932 5933 5934 5936 5937 5938 5938 5938 5938 5939 5940 5940 5940 5941 5942 5941 5941 5941 5940 5941 5942 5943 5943 5943 5942 5942 5942 5942 5942 5942 5941 5941 5940 5940 5939 5937 5936 5935 5934 5933 5931 5930 5929 5928 5926 5925 5924 5922 5920 5919 5918 5917 5916 5915 5915
5873 5875 5877 5879 5881 5883 5885 5887 5890 5892 5893 5895 5898 5900 5903 5905 5907 5909 5911 5913 5914 5916 5917 5919 5920 5922 5923 5925 5926 5927 5928 5929 5930 5931 5932 5934 5935 5936 5937 5938 5938 5939 5939 5940 5941 5941 5942 5942 5942 5942 5942 5941 5941 5942 5942 5943 5943 5943 5942 5943 5943 5943 5942 5942 5941 5940 5941 5940 5939 5937 5936 5935 5934 5932 5931 5930 5929 5927 5926 5925 5922 5920 5919 5918 5917 5917 5916 5915
5871 5873 5875 5877 5879 5881 5883 5885 5887 5890 5891 5893 5896 5898 5901 5903 5906 5908 5910 5912 5913 5915 5916 5918 5919 5921 5922 5924 5925 5927 5928 5928 5930 5931 5932 5934 5935 5936 5937 5937 5938 5939 5940 5940 5941 5941 5942 5942 5942 5942 5943 5942 5942 5942 5942 5943 5943 5943 5943 5943 5943 5943 5942 5942 5941 5940 5940 5940 5939 5938 5937 5936 5935 5934 5933 5931 5930 5928 5927 5926 5923 5921 5919 5919 5918 5918 5917 5916
5869 5871 5873 5875 5877 5879 5881 5883 5885 5887 5889 5892 5894 5896 5899 5902 5904 5906 5908 5910 5912 5914 5916 5917 5919 5920 5921 5923 5925 5926 5927 5928 5929 5931 5932 5933 5934 5935 5936 5937 5937 5939 5940 5940 5941 5941 5942 5942 5942 5943 5943 5943 5942 5942 5942 5942 5943 5943 5943 5943 5942 5943 5942 5942 5942 5941 5941 5940 5940 5939 5938 5937 5935 5934 5934 5932 5931 5929 5928 5927 5924 5922 5920 5919 5918 5918 5918 5917
5867 5868 5870 5872 5874 5876 5879 5881 5883 5885 5887 5890 5892 5895 5897 5900 5902 5905 5907 5909 5911 5913 5915 5916 5918 5919 5921 5922 5924 5926 5927 5928 5929 5930 5931 5933 5934 5935 5935 5936 5937 5938 5939 5940 5941 5941 5942 5942 5942 5943 5943 5943 5942 5942 5942 5942 5943 5943 5943 5942 5942 5942 5942 5942 5942 5941 5941 5941 5940 5940 5939 5938 5936 5935 5934 5933 5932 5930 5929 5927 5926 5923 5921 5920 5919 5919 5918 5918
5864 5866 5868 5870 5872 5874 5876 5879 5881 5883 5886 5888 5890 5893 5895 5898 5901 5903 5906 5908 5910 5912 5914 5915 5917 5919 5920 5922 5924 5925 5927 5928 5929 5930 5931 5932 5933 5934 5935 5935 5936 5938 5939 5940 5940 5941 5941 5942 5942 5943 5943 5943 5943 5942 5942 5942 5942 5943 5942 5942 5942 5942 5942 5941 5941 5941 5941 5941 5941 5940 5939 5938 5937 5936 5935 5934 5933 5931 5929 5928 5927 5924 5922 5921 5920 5919 5918 5918
5862 5863 5865 5867 5869 5872 5874 5876 5879 5881 5884 5886 5888 5891 5894 5896 5899 5902 5904 5907 5909 5911 5913 5915 5916 5918 5919 5921 5923 5925 5927 5928 5929 5930 5931 5932 5933 5933 5934 5934 5935 5937 5939 5940 5940 5941 5941 5942 5942 5943 5943 5943 5943 5942 5942 5941 5942 5943 5942 5942 5941 5941 5941 5941 5941 5941 5941 5941 5941 5940 5940 5939 5938 5937 5936 5934 5933 5932 5930 5929 5928 5925 5923 5921 5921 5919 5919 5918
5859 5861 5863 5865 5867 5869 5872 5874 5877 5879 5882 5884 5887 5889 5892 5895 5897 5900 5903 5905 5908 5910 5912 5914 5915 5917 5918 5920 5922 5924 5925 5927 5928 5929 5930 5931 5932 5933 5933 5934 5935 5937 5938 5939 5940 5940 5941 5942 5942 5942 5942 5943 5943 5942 5942 5941 5941 5942 5942 5942 5941 5941 5941 5941 5941 5941 5941 5941 5941 5941 5940 5939 5938 5938 5936 5935 5934 5932 5931 5930 5928 5926 5924 5922 5921 5920 5919 5918
5856 5858 5860 5862 5864 5867 5869 5872 5875 5877 5880 5883 5885 5888 5890 5893 5895 5898 5901 5904 5906 5909 5911 5913 5914 5916 5918 5919 5921 5923 5924 5926 5927 5929 5930 5931 5932 5932 5932 5933 5935 5937 5938 5939 5939 5940 5941 5942 5942 5942 5942 5943 5943 5942 5942 5941 5941 5942 5942 5942 5941 5941 5941 5941 5941 5941 5941 5941 5941 5941 5940 5939 5938 5938 5937 5935 5934 5933 5932 5931 5929 5927 5925 5923 5922 5922 5921 5919
5854 5856 5858 5860 5862 5864 5867 5869 5872 5875 5878 5881 5884 5886 5889 5891 5893 5897 5900 5902 5905 5908 5910 5912 5914 5915 5917 5918 5919 5921 5923 5925 5926 5928 5929 5931 5932 5932 5932 5933 5935 5936 5937 5938 5939 5940 5941 5941 5941 5942 5942 5943 5943 5942 5942 5941 5941 5941 5941 5941 5941 5941 5941 5941 5941 5941 5941 5941 5941 5940 5940 5939 5939 5938 5937 5935 5934 5933 5932 5931 5929 5927 5925 5924 5923 5922 5921 5920
5851 5853 5856 5858 5860 5862 5864 5867 5870 5873 5876 5879 5882 5884 5887 5889 5892 5895 5898 5901 5904 5906 5909 5911 5912 5914 5915 5917 5918 5920 5922 5924 5925 5927 5928 5930 5931 5931 5932 5933 5934 5935 5936 5938 5939 5939 5940 5940 5941 5942 5942 5943 5943 5942 5941 5941 5940 5940 5940 5941 5941 5941 5941 5941 5941 5941 5941 5941 5940 5940 5939 5939 5938 5938 5937 5935 5934 5934 5933 5931 5929 5927 5926 5924 5923 5922 5921 5920
5848 5851 5853 5855 5858 5860 5862 5865 5868 5871 5874 5877 5880 5883 5886 5888 5891 5893 5896 5899 5902 5905 5907 5909 5910 5912 5914 5916 5918 5920 5921 5923 5924 5926 5927 5929 5929 5930 5931 5932 5933 5934 5936 5937 5938 5939 5939 5940 5941 5941 5942 5942 5942 5942 5941 5940 5940 5940 5940 5940 5941 5941 5941 5941 5941 5940 5940 5940 5940 5939 5939 5939 5938 5938 5936 5935 5934 5934 5933 5931 5930 5928 5926 5925 5923 5922 5921 5920
5846 5848 5851 5853 5855 5858 5860 5863 5865 5869 5872 5875 5878 5882 5884 5887 5889 5891 5894 5898 5901 5903 5905 5907 5909 5911 5913 5915 5917 5919 5921 5922 5924 5925 5926 5927 5928 5929 5930 5931 5932 5934 5936 5936 5937 5938 5938 5940 5941 5941 5941 5941 5941 5941 5941 5941 5940 5940 5940 5940 5940 5940 5940 5940 5940 5940 5939 5939 5939 5939 5939 5938 5938 5937 5936 5935 5934 5934 5932 5931 5929 5928 5927 5925 5924 5922 5921 5920
5844 5846 5848 5851 5853 5856 5858 5860 5863 5867 5870 5874 5877 5880 5883 5885 5887 5890 5893 5896 5899 5901 5903 5905 5907 5910 5912 5914 5915 5918 5920 5921 5923 5924 5925 5926 5927 5928 5929 5930 5932 5934 5935 5936 5937 5937 5938 5939 5940 5940 5940 5940 5940 5940 5940 5940 5940 5940 5940 5940 5940 5940 5940 5940 5939 5939 5938 5938 5938 5938 5938 5938 5937 5937 5936 5934 5934 5933 5932 5931 5929 5928 5927 5926 5924 5922 5921 5920
5841 5844 5846 5849 5851 5853 5856 5859 5862 5865 5869 5872 5875 5878 5881 5883 5886 5888 5891 5894 5896 5899 5902 5904 5907 5909 5911 5913 5915 5916 5918 5920 5922 5924 5925 5925 5926 5927 5929 5930 5931 5933 5934 5935 5936 5937 5938 5939 5940 5940 5940 5940 5940 5940 5940 5940 5940 5940 5940 5940 5940 5940 5940 5940 5939 5938 5938 5937 5937 5937 5937 5937 5937 5937 5935 5934 5933 5932 5931 5930 5929 5928 5927 5926 5924 5922 5921 5920
5839 5841 5844 5846 5849 5851 5854 5857 5860 5864 5867 5870 5873 5876 5879 5881 5884 5887 5890 5892 5894 5898 5901 5903 5906 5908 5909 5912 5914 5915 5917 5919 5921 5923 5924 5925 5926 5927 5928 5929 5931 5932 5934 5935 5936 5936 5938 5939 5939 5939 5940 5940 5940 5940 5939 5939 5939 5939 5939 5939 5939 5939 5939 5939 5938 5937 5937 5936 5936 5937 5937 5937 5936 5936 5935 5933 5932 5931 5931 5930 5929 5928 5927 5926 5924 5922 5921 5920
5836 5839 5842 5844 5847 5849 5852 5856 5859 5862 5865 5869 5872 5875 5877 5879 5882 5885 5887 5890 5893 5897 5900 5902 5905 5906 5908 5911 5912 5915 5917 5918 5920 5921 5923 5924 5925 5927 5928 5928 5930 5932 5933 5935 5935 5936 5937 5938 5938 5939 5939 5939 5939 5939 5939 5938 5938 5938 5938 5938 5938 5937 5937 5937 5937 5936 5936 5936 5936 5936 5936 5936 5936 5935 5934 5933 5931 5930 5930 5930 5929 5927 5926 5925 5924 5922 5921 5920
5833 5836 5839 5842 5845 5848 5851 5855 5858 5861 5864 5867 5870 5872 5875 5878 5880 5883 5886 5888 5893 5896 5899 5901 5903 5905 5907 5910 5912 5914 5916 5917 5919 5920 5922 5923 5924 5925 5926 5928 5929 5931 5932 5934 5935 5935 5936 5937 5937 5938 5938 5938 5939 5939 5939 5938 5938 5937 5937 5937 5936 5935 5935 5936 5936 5936 5935 5935 5935 5935 5935 5935 5935 5934 5934 5932 5931 5930 5929 5929 5928 5927 5926 5925 5923 5922 5920 5919
5831 5834 5837 5840 5843 5847 5850 5853 5857 5860 5862 5865 5868 5871 5874 5876 5879 5882 5884 5888 5892 5894 5897 5899 5902 5904 5907 5909 5911 5913 5915 5917 5918 5919 5921 5922 5923 5924 5926 5927 5929 5930 5932 5933 5934 5934 5935 5936 5936 5937 5937 5937 5938 5938 5938 5937 5937 5936 5936 5935 5935 5934 5934 5934 5934 5934 5935 5934 5934 5934 5934 5934 5934 5934 5933 5932 5931 5930 5929 5928 5928 5926 5925 5924 5923 5921 5920 5919
5829 5832 5835 5838 5842 5845 5849 5852 5855 5858 5861 5864 5867 5870 5873 5875 5878 5881 5884 5887 5890 5893 5895 5898 5901 5904 5906 5908 5910 5912 5914 5916 5917 5919 5920 5921 5922 5923 5925 5926 5928 5929 5931 5932 5932 5933 5934 5935 5936 5936 5936 5936 5936 5936 5936 5936 5936 5935 5935 5935 5934 5934 5933 5933 5933 5933 5933 5933 5933 5933 5933 5933 5933 5933 5932 5932 5931 5930 5929 5928 5927 5926 5925 5923 5922 5920 5919 5917
5828 5831 5834 5837 5841 5844 5848 5851 5855 5858 5861 5864 5867 5869 5872 5875 5878 5881 5883 5886 5889 5892 5894 5898 5901 5903 5905 5907 5909 5910 5912 5914 5916 5917 5919 5920 5921 5922 5924 5925 5926 5928 5929 5930 5931 5932 5933 5934 5935 5935 5935 5935 5935 5935 5935 5935 5935 5934 5934 5934 5934 5933 5933 5933 5933 5932 5932 5932 5932 5932 5932 5932 5932 5932 5932 5931 5930 5930 5929 5927 5926 5925 5924 5922 5921 5920 5918 5916
5827 5830 5833 5836 5840 5843 5847 5851 5854 5857 5860 5863 5866 5869 5872 5875 5877 5880 5882 5885 5888 5891 5893 5896 5899 5901 5903 5905 5907 5909 5911 5913 5914 5916 5917 5918 5919 5920 5922 5924 5925 5926 5928 5929 5930 5931 5932 5933 5934 5934 5934 5934 5934 5934 5935 5935 5934 5934 5934 5934 5934 5933 5933 5932 5932 5932 5932 5932 5931 5931 5931 5931 5931 5931 5931 5931 5930 5929 5928 5927 5926 5924 5923 5921 5920 5919 5918 5915
5826 5829 5832 5835 5839 5843 5847 5850 5854 5857 5860 5863 5866 5869 5872 5874 5877 5879 5881 5884 5887 5890 5892 5895 5897 5899 5902 5904 5905 5908 5910 5912 5913 5914 5915 5917 5918 5919 5921 5923 5924 5926 5927 5928 5930 5930 5931 5933 5933 5933 5933 5933 5933 5933 5934 5934 5934 5933 5933 5933 5933 5933 5932 5932 5932 5931 5932 5931 5931 5930 5930 5930 5930 5930 5930 5930 5929 5928 5927 5926 5925 5923 5922 5920 5919 5918 5917 5916
5824 5827 5830 5834 5838 5842 5846 5849 5853 5856 5859 5863 5866 5868 5871 5873 5875 5878 5880 5883 5886 5889 5891 5894 5896 5898 5900 5902 5904 5907 5909 5911 5912 5913 5914 5916 5917 5918 5920 5922 5923 5925 5926 5928 5929 5929 5931 5932 5932 5931 5932 5932 5933 5933 5933 5934 5933 5933 5933 5932 5932 5932 5931 5931 5931 5931 5931 5930 5930 5930 5929 5929 5929 5929 5929 5928 5928 5927 5926 5925 5924 5922 5921 5919 5919 5918 5917 5915
5823 5826 5830 5833 5837 5841 5845 5849 5853 5856 5860 5862 5865 5868 5870 5872 5875 5877 5879 5882 5885 5888 5890 5893 5895 5898 5899 5901 5904 5906 5908 5910 5911 5913 5914 5915 5916 5917 5919 5921 5922 5924 5925 5927 5928 5929 5930 5930 5930 5930 5931 5932 5932 5932 5932 5933 5932 5932 5931 5930 5930 5930 5930 5930 5930 5929 5929 5929 5929 5929 5929 5928 5928 5928 5928 5927 5926 5926 5925 5924 5923 5921 5920 5919 5918 5916 5915 5914
5823 5826 5830 5833 5837 5841 5845 5849 5853 5857 5860 5862 5865 5868 5870 5872 5875 5877 5880 5882 5885 5888 5890 5893 5895 5898 5900 5902 5904 5905 5907 5909 5910 5912 5913 5914 5915 5916 5918 5920 5921 5923 5924 5925 5927 5928 5928 5929 5929 5929 5930 5931 5931 5931 5931 5931 5931 5930 5930 5929 5929 5928 5928 5928 5928 5928 5928 5928 5928 5928 5927 5927 5926 5926 5926 5926 5925 5924 5923 5922 5921 5919 5918 5917 5916 5915 5913 5912
5825 5828 5831 5835 5839 5843 5846 5850 5853 5856 5859 5862 5865 5868 5871 5873 5876 5879 5881 5884 5886 5888 5891 5893 5895 5898 5899 5901 5903 5905 5907 5909 5910 5912 5913 5914 5915 5916 5917 5919 5920 5922 5923 5925 5926 5926 5927 5928 5928 5928 5929 5930 5930 5930 5930 5930 5929 5929 5929 5928 5928 5927 5927 5926 5926 5926 5926 5926 5926 5926 5926 5925 5925 5925 5925 5924 5924 5923 5922 5920 5919 5918 5916 5915 5914 5912 5911 5910
5827 5830 5834 5838 5841 5845 5847 5850 5854 5857 5860 5863 5866 5869 5872 5875 5877 5880 5882 5884 5886 5889 5891 5893 5895 5897 5899 5901 5903 5905 5906 5908 5910 5911 5912 5913 5914 5916 5917 5919 5921 5922 5924 5925 5925 5926 5926 5927 5928 5928 5928 5929 5929 5928 5928 5928 5927 5927 5927 5927 5927 5926 5926 5925 5925 5924 5924 5924 5924 5923 5924 5924 5924 5924 5923 5923 5922 5921 5920 5918 5917 5915 5914 5913 5911 5910 5909 5908
5830 5833 5836 5840 5843 5846 5848 5851 5855 5858 5861 5865 5867 5870 5873 5876 5878 5880 5882 5885 5887 5889 5891 5893 5895 5897 5899 5900 5902 5904 5905 5907 5909 5910 5911 5912 5914 5915 5917 5919 5921 5922 5924 5925 5925 5925 5925 5926 5927 5927 5927 5928 5928 5927 5927 5927 5926 5925 5926 5926 5926 5925 5925 5924 5923 5922 5922 5922 5921 5921 5922 5922 5922 5922 5922 5921 5920 5919 5918 5916 5915 5913 5911 5910 5909 5908 5907 5906
5833 5836 5839 5842 5844 5847 5850 5853 5856 5859 5863 5866 5868 5871 5873 5875 5878 5880 5882 5885 5887 5889 5891 5892 5894 5896 5899 5901 5902 5904 5905 5907 5908 5910 5911 5912 5914 5915 5917 5919 5920 5921 5923 5923 5924 5925 5925 5925 5926 5926 5926 5926 5926 5925 5925 5926 5925 5925 5925 5924 5924 5924 5923 5923 5922 5921 5920 5920 5920 5919 5919 5920 5920 5919 5919 5918 5917 5917 5916 5914 5912 5910 5909 5908 5906 5905 5904 5903
5837 5840 5842 5844 5847 5849 5852 5855 5858 5861 5864 5867 5869 5871 5873 5875 5878 5880 5882 5884 5886 5888 5890 5891 5892 5895 5897 5900 5901 5903 5905 5906 5908 5909 5910 5911 5913 5914 5916 5918 5919 5920 5921 5922 5923 5923 5924 5924 5925 5924 5924 5924 5924 5924 5924 5924 5924 5924 5924 5923 5922 5922 5921 5921 5920 5919 5918 5918 5918 5917 5917 5917 5917 5917 5916 5916 5915 5914 5913 5911 5910 5908 5907 5905 5904 5903 5902 5901
5840 5842 5845 5847 5850 5852 5854 5857 5860 5862 5865 5867 5870 5872 5874 5876 5879 5881 5882 5884 5885 5887 5889 5891 5893 5895 5897 5899 5901 5903 5904 5906 5907 5908 5909 5910 5911 5913 5915 5916 5918 5919 5920 5921 5922 5922 5922 5923 5923 5923 5923 5922 5922 5922 5922 5922 5922 5922 5921 5921 5921 5920 5919 5919 5918 5917 5916 5916 5915 5914 5914 5915 5915 5914 5913 5913 5912 5911 5910 5909 5907 5906 5904 5903 5902 5901 5899 5898
5842 5845 5848 5850 5852 5855 5857 5860 5862 5863 5866 5868 5870 5873 5875 5878 5880 5882 5883 5885 5886 5888 5890 5892 5894 5896 5898 5900 5902 5903 5905 5906 5907 5908 5909 5910 5911 5912 5913 5915 5916 5917 5919 5919 5920 5920 5921 5920 5921 5921 5921 5921 5920 5920 5920 5920 5920 5920 5919 5918 5918 5918 5917 5916 5915 5914 5914 5914 5913 5912 5912 5912 5912 5911 5911 5910 5909 5908 5907 5906 5904 5903 5902 5901 5900 5898 5897 5896
5845 5848 5850 5852 5854 5856 5859 5861 5862 5864 5866 5868 5870 5873 5875 5878 5880 5882 5884 5885 5888 5890 5891 5893 5895 5897 5899 5901 5902 5904 5905 5906 5907 5908 5909 5910 5911 5912 5913 5914 5915 5916 5917 5918 5918 5919 5919 5919 5919 5920 5920 5920 5919 5918 5918 5917 5917 5916 5916 5916 5915 5915 5915 5914 5913 5912 5912 5911 5910 5909 5909 5909 5909 5908 5908 5907 5906 5905 5904 5902 5901 5900 5899 5898 5897 5896 5895 5894
5847 5850 5852 5854 5855 5858 5860 5862 5863 5865 5867 5869 5871 5874 5876 5878 5880 5882 5884 5886 5888 5890 5892 5894 5896 5897 5899 5901 5902 5904 5905 5906 5907 5908 5909 5910 5911 5912 5912 5913 5914 5915 5916 5917 5917 5918 5918 5918 5918 5918 5918 5918 5917 5916 5915 5914 5914 5914 5913 5913 5913 5912 5912 5911 5911 5910 5909 5908 5908 5908 5907 5907 5906 5906 5905 5904 5903 5902 5901 5899 5898 5898 5897 5896 5894 5893 5892 5891
5850 5851 5853 5856 5857 5859 5861 5863 5865 5866 5868 5870 5872 5875 5877 5879 5881 5882 5884 5886 5889 5891 5892 5894 5896 5897 5899 5900 5902 5903 5904 5906 5907 5908 5909 5910 5910 5911 5912 5913 5914 5914 5915 5915 5916 5916 5916 5916 5916 5916 5916 5915 5914 5913 5912 5912 5911 5911 5911 5911 5911 5910 5910 5909 5908 5908 5906 5906 5906 5905 5904 5904 5904 5903 5902 5901 5900 5899 5898 5897 5895 5894 5893 5892 5891 5890 5890 5889
5851 5853 5855 5857 5859 5861 5863 5865 5866 5867 5869 5871 5873 5876 5878 5880 5882 5883 5885 5887 5889 5891 5892 5894 5895 5897 5899 5900 5901 5903 5904 5905 5906 5907 5907 5908 5909 5910 5911 5912 5912 5913 5913 5914 5914 5914 5914 5914 5914 5914 5913 5912 5911 5910 5910 5909 5909 5909 5909 5908 5908 5908 5908 5907 5906 5905 5904 5903 5903 5902 5901 5901 5900 5900 5899 5898 5898 5896 5895 5893 5891 5890 5890 5890 5889 5888 5887 5886
5853 5855 5857 5859 5861 5863 5864 5866 5867 5869 5871 5873 5875 5877 5879 5881 5883 5884 5886 5887 5889 5891 5892 5894 5895 5897 5898 5899 5901 5902 5903 5904 5905 5905 5906 5907 5908 5909 5910 5910 5911 5911 5912 5912 5912 5912 5912 5912 5911 5911 5910 5909 5908 5908 5907 5907 5906 5906 5905 5905 5905 5905 5905 5904 5904 5903 5902 5901 5900 5899 5898 5898 5897 5897 5896 5896 5895 5893 5892 5891 5890 5890 5889 5889 5888 5885 5884 5882
5854 5856 5858 5860 5862 5864 5866 5867 5869 5871 5873 5874 5876 5878 5880 5882 5883 5885 5886 5888 5889 5891 5892 5893 5895 5896 5898 5899 5900 5901 5902 5903 5903 5904 5905 5906 5906 5907 5908 5908 5909 5909 5909 5910 5910 5910 5910 5909 5908 5908 5908 5906 5906 5906 5905 5905 5904 5903 5902 5902 5902 5902 5902 5902 5901 5900 5900 5899 5897 5896 5895 5894 5894 5894 5894 5893 5892 5890 5889 5888 5888 5887 5886 5884 5883 5882 5880 5879
5855 5857 5859 5862 5863 5865 5867 5868 5870 5872 5874 5876 5877 5879 5881 5882 5884 5885 5887 5888 5889 5890 5891 5893 5894 5895 5897 5898 5899 5900 5900 5901 5902 5902 5903 5904 5904 5905 5905 5906 5906 5907 5907 5907 5907 5908 5908 5907 5905 5905 5904 5904 5903 5903 5903 5902 5902 5901 5900 5900 5900 5899 5899 5899 5898 5897 5896 5895 5894 5893 5892 5892 5892 5891 5891 5890 5888 5886 5885 5884 5884 5883 5882 5880 5880 5878 5876 5874
5856 5858 5860 5863 5864 5866 5868 5869 5871 5873 5876 5877 5879 5880 5882 5883 5885 5886 5887 5888 5889 5890 5891 5892 5893 5894 5895 5896 5897 5898 5898 5899 5900 5900 5901 5902 5902 5902 5903 5903 5903 5904 5904 5904 5904 5904 5904 5904 5903 5903 5902 5901 5901 5901 5900 5900 5900 5899 5898 5898 5898 5897 5897 5896 5895 5894 5893 5892 5891 5890 5889 5889 5888 5887 5886 5885 5884 5883 5882 5880 5879 5878 5878 5877 5875 5874 5872 5870